カタログに戻る

FENGYUN 1C DEB

運用中SSO
NORAD 31357·DEBRIS·🇨🇳 China

打ち上げ May 10, 1999 から Taiyuan Satellite Launch Center

Loading…

次のパス (今後24時間)

TLE

最新Source: Space-Track

元期: Sep 14, 2026, 00:42 UTC

1 31357U 99025BRM 26257.02938955 -.00000030  00000-0  60113-5 0  9997
2 31357  98.5834 284.5525 0049263 217.1739 172.8220 14.18558159  5962

AllMySatでFENGYUN 1C DEBをリアルタイム追跡

Download on the App Store